Marshall, MI

6:01 PM EDT on September 21, 2017 (GMT -0400)
Brooks

Weather History for KRMY - April, 2013

Change the Weather History Date:

Saturday, April 6, 2013

  Actual Average (KBTL) Record (KBTL)
Temperature  
Mean Temperature 45 °F -  
Max Temperature 57 °F 52 °F 78 °F (2005)
Min Temperature 33 °F 33 °F 21 °F (2002)
Degree Days  
Heating Degree Days 20    
Moisture  
Dew Point 21 °F    
Average Humidity 40    
Maximum Humidity 67    
Minimum Humidity 22    
Precipitation  
Precipitation 0.00 in - - ()
Sea Level Pressure  
Sea Level Pressure 30.02 in    
Wind  
Wind Speed 9 mph (SE)    
Max Wind Speed 20 mph    
Max Gust Speed 30 mph    
Visibility 10 miles    
Events      
Averages and records for this station are not official NWS values.
T = Trace of Precipitation, MM = Missing Value Source: NWS Daily Summary

Daily Weather History Graph

Daily Weather History Graph

Search for Another Location

Airport or City:

Trip Planner

Search our weather history database for the weather conditions in past years. The results will help you decide how hot, cold, wet, or windy it might be!

Date:

Astronomy

Apr. 06, 2013 Rise Set
Actual Time 7:13 AM EDT 8:11 PM EDT
Civil Twilight 6:44 AM EDT 8:40 PM EDT
Nautical Twilight 6:10 AM EDT 9:14 PM EDT
Astronomical Twilight 5:35 AM EDT 9:49 PM EDT
Moon 5:00 AM EDT (4/6) 4:35 PM EDT (4/6)
Length of Visible Light 13h 55m
Length of Day
12h 58m
Waning Crescent, 15% of the Moon is Illuminated
Apr 6
Waning Crescent
Apr 10
New
Apr 18
First Quarter
Apr 25
Full
May 2
Last Quarter

Hourly Weather History & Observations

Time (EDT) Temp. Windchill Dew Point Humidity Pressure Visibility Wind Dir Wind Speed Gust Speed Precip Events Conditions
12:13 AM 34.2 °F - 23.2 °F 64% 30.16 in 10.0 mi Calm Calm - N/A   Mostly Cloudy
12:33 AM 33.6 °F - 23.5 °F 67% 30.16 in 10.0 mi Calm Calm - N/A   Overcast
12:54 AM 35.2 °F - 23.9 °F 63% 30.16 in 10.0 mi Calm Calm - N/A   Overcast
1:13 AM 34.9 °F 30.8 °F 24.1 °F 65% 30.16 in 10.0 mi East 4.6 mph - N/A   Overcast
1:33 AM 35.4 °F 30.5 °F 22.6 °F 60% 30.17 in 10.0 mi ESE 5.8 mph - N/A   Overcast
1:54 AM 36.1 °F 30.6 °F 22.6 °F 58% 30.17 in 10.0 mi SE 6.9 mph - N/A   Overcast
2:13 AM 36.5 °F 30.3 °F 23.5 °F 59% 30.17 in 10.0 mi SE 8.1 mph - N/A   Overcast
2:33 AM 36.3 °F 29.5 °F 23.7 °F 60% 30.17 in 10.0 mi SE 9.2 mph - N/A   Overcast
2:54 AM 36.0 °F 29.6 °F 23.5 °F 61% 30.17 in 10.0 mi SE 8.1 mph - N/A   Overcast
3:13 AM 36.0 °F 29.6 °F 23.4 °F 60% 30.17 in 10.0 mi ESE 8.1 mph - N/A   Overcast
3:33 AM 35.8 °F 30.1 °F 23.7 °F 62% 30.17 in 10.0 mi ESE 6.9 mph - N/A   Overcast
3:54 AM 35.8 °F 30.1 °F 24.1 °F 62% 30.17 in 10.0 mi SE 6.9 mph - N/A   Overcast
4:13 AM 35.8 °F 29.4 °F 24.4 °F 63% 30.17 in 10.0 mi ESE 8.1 mph - N/A   Overcast
4:34 AM 35.8 °F 29.4 °F 24.3 °F 63% 30.17 in 10.0 mi SE 8.1 mph - N/A   Overcast
4:53 AM 35.8 °F 29.4 °F 23.9 °F 62% 30.17 in 10.0 mi SE 8.1 mph - N/A   Overcast
5:13 AM 35.4 °F 30.5 °F 22.8 °F 60% 30.17 in 10.0 mi SE 5.8 mph - N/A   Overcast
5:34 AM 35.4 °F 29.7 °F 22.5 °F 59% 30.16 in 10.0 mi SE 6.9 mph - N/A   Overcast
5:53 AM 35.4 °F 30.5 °F 21.9 °F 58% 30.17 in 10.0 mi SE 5.8 mph - N/A   Overcast
6:14 AM 35.4 °F 28.4 °F 21.2 °F 56% 30.17 in 10.0 mi SE 9.2 mph - N/A   Overcast
6:34 AM 35.4 °F 29.0 °F 20.8 °F 55% 30.16 in 10.0 mi SE 8.1 mph - N/A   Overcast
6:53 AM 35.4 °F 28.4 °F 20.3 °F 54% 30.16 in 10.0 mi SE 9.2 mph - N/A   Overcast
7:14 AM 35.4 °F 28.4 °F 19.2 °F 52% 30.17 in 10.0 mi SE 9.2 mph - N/A   Overcast
7:34 AM 35.4 °F 26.8 °F 18.1 °F 49% 30.16 in 10.0 mi ESE 12.7 mph - N/A   Mostly Cloudy
7:53 AM 35.4 °F 27.3 °F 16.3 °F 46% 30.18 in 10.0 mi SE 11.5 mph - N/A   Overcast
8:14 AM 36.0 °F 27.5 °F 15.6 °F 44% 30.17 in 10.0 mi SE 12.7 mph 19.6 mph N/A   Scattered Clouds
8:34 AM 36.3 °F 28.0 °F 15.1 °F 42% 30.16 in 10.0 mi SE 12.7 mph 23.0 mph N/A   Scattered Clouds
8:53 AM 36.9 °F 29.1 °F 14.4 °F 40% 30.16 in 10.0 mi SE 11.5 mph 19.6 mph N/A   Scattered Clouds
9:14 AM 37.8 °F 28.6 °F 13.6 °F 37% 30.14 in 10.0 mi SE 16.1 mph 21.9 mph N/A   Scattered Clouds
9:33 AM 38.8 °F 30.0 °F 12.9 °F 35% 30.15 in 10.0 mi SE 16.1 mph 20.7 mph N/A   Scattered Clouds
9:53 AM 39.7 °F 31.5 °F 12.7 °F 33% 30.14 in 10.0 mi SE 15.0 mph 20.7 mph N/A   Scattered Clouds
10:14 AM 40.6 °F 32.3 °F 12.2 °F 31% 30.14 in 10.0 mi SE 16.1 mph 27.6 mph N/A   Clear
10:33 AM 41.2 °F 33.7 °F 13.5 °F 32% 30.13 in 10.0 mi SSE 13.8 mph 21.9 mph N/A   Clear
10:53 AM 42.1 °F 33.9 °F 14.4 °F 33% 30.13 in 10.0 mi SSE 17.3 mph 20.7 mph N/A   Clear
11:14 AM 42.4 °F 34.4 °F 14.4 °F 32% 30.12 in 10.0 mi SSE 17.3 mph 25.3 mph N/A   Clear
11:33 AM 43.5 °F 36.4 °F 15.4 °F 32% 30.11 in 10.0 mi SE 15.0 mph 19.6 mph N/A   Clear
11:53 AM 44.2 °F 36.4 °F 14.7 °F 30% 30.11 in 10.0 mi SE 18.4 mph 24.2 mph N/A   Clear
12:14 PM 45.7 °F 39.5 °F 14.7 °F 29% 30.10 in 10.0 mi SSE 13.8 mph 26.5 mph N/A   Clear
12:33 PM 46.6 °F - 14.9 °F 28% 30.08 in 10.0 mi SSE 15.0 mph 26.5 mph N/A   Clear
12:53 PM 47.5 °F - 14.9 °F 27% 30.07 in 10.0 mi SSE 16.1 mph 23.0 mph N/A   Clear
1:14 PM 48.9 °F - 15.3 °F 26% 30.06 in 10.0 mi SSE 15.0 mph 19.6 mph N/A   Clear
1:33 PM 50.0 °F - 14.7 °F 25% 30.05 in 10.0 mi SSE 15.0 mph 25.3 mph N/A   Clear
1:53 PM 50.7 °F - 14.7 °F 24% 30.04 in 10.0 mi SSE 15.0 mph 23.0 mph N/A   Clear
2:14 PM 52.2 °F - 16.2 °F 24% 30.02 in 10.0 mi SSE 18.4 mph 26.5 mph N/A   Clear
2:33 PM 53.4 °F - 16.5 °F 23% 30.00 in 10.0 mi South 19.6 mph 25.3 mph N/A   Clear
2:54 PM 54.3 °F - 15.6 °F 22% 29.98 in 10.0 mi SSE 17.3 mph 26.5 mph N/A   Clear
3:13 PM 55.4 °F - 16.5 °F 22% 29.96 in 10.0 mi SSE 16.1 mph 26.5 mph N/A   Clear
3:34 PM 54.9 °F - 17.2 °F 23% 29.94 in 10.0 mi SSE 16.1 mph 25.3 mph N/A   Clear
3:54 PM 55.2 °F - 18.3 °F 24% 29.92 in 10.0 mi SE 16.1 mph 24.2 mph N/A   Clear
4:13 PM 56.5 °F - 19.6 °F 24% 29.90 in 10.0 mi SE 16.1 mph 26.5 mph N/A   Clear
4:33 PM 56.8 °F - 20.3 °F 24% 29.89 in 10.0 mi SSE 11.5 mph 26.5 mph N/A   Clear
4:53 PM 56.5 °F - 20.7 °F 25% 29.87 in 10.0 mi SSE 18.4 mph 27.6 mph N/A   Clear
5:13 PM 57.7 °F - 21.7 °F 25% 29.85 in 10.0 mi SSE 15.0 mph 20.7 mph N/A   Clear
5:34 PM 56.7 °F - 22.1 °F 26% 29.84 in 10.0 mi SSE 16.1 mph 25.3 mph N/A   Scattered Clouds
5:53 PM 57.4 °F - 22.8 °F 26% 29.83 in 10.0 mi SSE 11.5 mph 24.2 mph N/A   Clear
6:13 PM 57.6 °F - 23.2 °F 27% 29.83 in 10.0 mi SSE 16.1 mph 29.9 mph N/A   Clear
6:34 PM 57.2 °F - 23.7 °F 28% 29.82 in 10.0 mi SSE 15.0 mph 21.9 mph N/A   Clear
6:53 PM 57.0 °F - 23.9 °F 28% 29.82 in 10.0 mi South 13.8 mph 23.0 mph N/A   Clear
7:13 PM 56.8 °F - 25.0 °F 29% 29.82 in 10.0 mi SSE 10.4 mph 21.9 mph N/A   Clear
7:34 PM 56.5 °F - 25.0 °F 30% 29.82 in 10.0 mi SSE 12.7 mph 20.7 mph N/A   Mostly Cloudy
7:53 PM 55.9 °F - 25.0 °F 30% 29.81 in 10.0 mi SSE 12.7 mph 19.6 mph N/A   Scattered Clouds
8:13 PM 55.8 °F - 25.3 °F 31% 29.81 in 10.0 mi SSE 12.7 mph 19.6 mph N/A   Clear
8:34 PM 55.2 °F - 25.2 °F 31% 29.80 in 10.0 mi SSE 16.1 mph 19.6 mph N/A   Clear
8:53 PM 55.2 °F - 25.2 °F 31% 29.79 in 10.0 mi SSE 13.8 mph 19.6 mph N/A   Clear
9:13 PM 55.2 °F - 25.5 °F 32% 29.78 in 10.0 mi SSE 12.7 mph 19.6 mph N/A   Clear
9:34 PM 55.4 °F - 26.1 °F 32% 29.77 in 10.0 mi SSE 11.5 mph 19.6 mph N/A   Scattered Clouds
9:53 PM 55.6 °F - 27.0 °F 33% 29.76 in 10.0 mi SSE 10.4 mph 17.3 mph N/A   Mostly Cloudy
10:13 PM 55.8 °F - 27.1 °F 33% 29.75 in 10.0 mi SSE 13.8 mph 20.7 mph N/A   Mostly Cloudy
10:34 PM 55.8 °F - 27.9 °F 34% 29.74 in 10.0 mi SSE 11.5 mph 17.3 mph N/A   Scattered Clouds
10:53 PM 55.9 °F - 28.0 °F 34% 29.73 in 10.0 mi SSE 13.8 mph 18.4 mph N/A   Mostly Cloudy
11:14 PM 56.8 °F - 28.9 °F 34% 29.73 in 10.0 mi South 12.7 mph - N/A   Overcast
11:34 PM 56.7 °F - 29.5 °F 35% 29.72 in 10.0 mi South 11.5 mph 18.4 mph N/A   Mostly Cloudy
11:53 PM 57.4 °F - 30.6 °F 36% 29.71 in 10.0 mi South 12.7 mph 18.4 mph N/A   Overcast